Location: Coopersdale
(40.3556°N, 78.9372°W)
Time: 02:44:27
(UTC+00:00)

Tiros 1 despin weight - Pass Details

Date: 28 January 2021
Orbit: 593 x 642 km, 48.2° (Epoch: 02 March)

Event Time Altitude Azimuth Distance (km) Brightness Sun altitude
Rises 21:08:12 0° 292° (WNW) 2,886 ? 12.6°
Reaches altitude 10° 21:10:45 10° 303° (WNW) 1,971 ? 12.2°
Maximum altitude 21:14:46 31° 6° (N) 1,080 ? 11.6°
Drops below altitude 10° 21:18:45 10° 69° (ENE) 1,943 ? 11.0°
Sets 21:21:14 0° 80° (E) 2,839 ? 10.6°
